Powrót do katalogu

USA 565

AktywnyMilitariaVLEO
NORAD 65711·PAYLOAD·🇺🇸 United States

Wystrzelony Sep 22, 2025 z Vandenberg Space Force Base

Loading…

Następne Przeloty (najbliższe 24 godziny)

TLE

NieaktualneSource: Mike McCants

Epoka: Apr 30, 2026, 21:03 UTC

1 65711U 25213H   26120.87726372 0.00000000  00000-0  00000-0 0    09
2 65711  70.0100 145.8970 0002000  97.8483 262.1517 14.96712800    07

Śledź USA 565 w czasie rzeczywistym z AllMySat

Download on the App Store